Regional Weather Roundup
Issued by NWS Albany, NY

Home | Current Version | Previous Version | Text Only | Print | Product List | Glossary On
Versions: 1 2 3 4 5 6 7 8 9 10 11 12 13 14 15 16 17 18 19 20 21 22 23 24 25 26 27
000
ASUS41 KALY 230710
RWRALY

NEW YORK STATE HOURLY WEATHER ROUNDUP
NATIONAL WEATHER SERVICE ALBANY NY
300 AM EDT MON APR 23 2018

NOTE: "FAIR" INDICATES FEW OR NO CLOUDS BELOW 12,000 FEET WITH NO
SIGNIFICANT WEATHER AND/OR NO OBSTRUCTIONS TO VISIBILITY.

NYZ032-033-038>043-046>054-057>066-NYZ062>081-082-084-230800-
EAST


CITY           SKY/WX    TMP DP  RH WIND       PRES   REMARKS
ALBANY         FAIR      36  24  62 N3        30.44R
GLENS FALLS    FAIR      29  25  85 CALM      30.43R
POUGHKEEPSIE   FAIR      31  24  75 CALM      30.41R
NEWBURGH       CLEAR     39  32  75 CALM      30.41S
MONTGOMERY     FAIR      34  27  75 CALM      30.40R
WHITE PLAINS   FAIR      39  29  67 NW5       30.39R
ISLIP          FAIR      40  30  67 CALM      30.40S
NEW YORK CITY  FAIR      49  32  52 CALM      30.40R
CENTRAL PARK   FAIR      50  27  40 CALM      30.42S
$$

NYZ005>009-017-018-044>046-055-056-230800-
CENTRAL


CITY           SKY/WX    TMP DP  RH WIND       PRES   REMARKS
FULTON         FAIR      32  24  72 CALM      30.42S
SYRACUSE       FAIR      34  23  64 SE3       30.42S
ROME           FAIR      29  22  75 CALM      30.44S
ELMIRA         FAIR      29  22  75 CALM      30.42S
BINGHAMTON     FAIR      40  14  34 NE3       30.40R
MONTICELLO     FAIR      33  18  53 CALM      30.41R
$$

NYZ026>034-041>043-087-230800-
NORTH


CITY           SKY/WX    TMP DP  RH WIND       PRES   REMARKS
WATERTOWN      FAIR      27  24  89 E6        30.41F WCI  20
FORT DRUM      NOT AVBL
OGDENSBURG     FAIR      34  33  94 S5        30.41F WCI  30
MASSENA        FAIR      28  23  81 CALM      30.42S
SARANAC LAKE   FAIR      20  17  88 CALM      30.39S
PLATTSBURGH    FAIR      29  23  78 CALM      30.41S
$$

NYZ001>004-010>016-019>021-085-230800-
WEST


CITY           SKY/WX    TMP DP  RH WIND       PRES   REMARKS
NIAGARA FALLS  FAIR      42  23  46 E6        30.37F
BUFFALO        FAIR      42  23  46 SE6       30.37F
DUNKIRK        FAIR      47  22  37 NE9       30.35S
JAMESTOWN      FAIR      45  19  35 SE5       30.35S
WELLSVILLE     FAIR      41  18  39 SE5       30.39F
ROCHESTER      FAIR      37  28  70 SW3       30.40F
PENN YAN       FAIR      33  24  69 SW6       30.41S WCI  28
$$

             KEY
       WCI = WIND CHILL INDEX
       VSB = VISIBILITY
       HX  = HEAT INDEX
$$




USA.gov is the U.S. government's official web portal to all federal, state and local government web resources and services.